Location: Arundel
(45.9679°N, 74.6164°W)
Time: 16:38:23
(UTC-05:00)

Tiangong 2 - Visible Passes

Search period start: 23 January 2018 00:00
Search period end: 02 February 2018 00:00
Orbit: 384 x 390 km, 42.8° (Epoch: 23 January)

Date Brightness Start Highest point End Pass type
(mag) Time Alt. Az. Time Alt. Az. Time Alt. Az.
23 Jan 3.0 05:09:36 28° SE 05:09:36 28° SE 05:11:33 10° E visible
23 Jan 1.9 06:42:02 10° W 06:45:05 44° S 06:48:10 10° ESE visible
24 Jan 1.7 05:45:53 41° SW 05:46:26 47° S 05:49:31 10° ESE visible
25 Jan 4.0 04:49:51 18° ESE 04:49:51 18° ESE 04:50:50 10° E visible
25 Jan 2.2 06:22:07 16° WSW 06:24:18 36° SSW 06:27:16 10° SE visible
26 Jan 2.1 05:26:04 40° SSE 05:26:04 40° SSE 05:28:41 10° ESE visible
27 Jan 2.5 06:02:18 22° SW 06:03:25 27° SSW 06:06:12 10° SE visible
28 Jan 3.3 05:06:17 22° SE 05:06:17 22° SE 05:07:44 10° SE visible
28 Jan 3.5 06:39:26 10° WSW 06:41:01 13° SSW 06:42:36 10° S visible
29 Jan 3.0 05:42:34 19° SSW 05:42:34 19° SSW 05:44:50 10° SSE visible
